Hourly Data Report for October 19, 2014

All times are specified in Local Standard Time (LST). Add 1 hour to adjust for Daylight Saving Time where and when it is observed.

IQALUIT CLIMATE
NUNAVUT

63°44'50.000" N
68°32'40.000" W
33.50 m
2402592
71321
XFB

Download Data

Hourly Data (October 2014)
Hourly Data Report for October 19, 2014
Temp Definition
°C
Dew Point Temp Definition
°C
Rel Hum Definition
%
Wind Dir Definition
10's deg

Wind Spd Definition
km/h
Visibility Definition
km
Stn Press Definition
kPa
Hmdx Definition


Wind Chill Definition


Weather Definition


TIME
00:00 -13.3 -15.1 86 33 18   101.66   -22 LegendNANA
01:00 -14.0 -15.9 86 33 16   101.67   -22 LegendNANA
02:00 -13.6 -15.7 84 32 20   101.67   -22 LegendNANA
03:00 -13.7 -15.9 84 32 17   101.71   -22 LegendNANA
04:00 -13.3 -15.7 82 33 16   101.71   -21 LegendNANA
05:00 -13.9 -15.9 85 32 19   101.71   -23 LegendNANA
06:00 -14.5 -16.4 86 33 17   101.73   -23 LegendNANA
07:00 -14.0 -16.2 84 32 20   101.72   -23 LegendNANA
08:00 -12.9 -15.5 81 32 17   101.73   -21 LegendNANA
09:00 -12.6 -15.1 82 32 19   101.72   -21 LegendNANA
10:00 -11.8 -14.2 82 32 16   101.69   -19 LegendNANA
11:00 -11.5 -14.0 82 32 16   101.69   -19 LegendNANA
12:00 -10.9 -13.7 80 32 19   101.68   -19 LegendNANA
13:00 -10.4 -13.3 79 32 17   101.66   -18 LegendNANA
14:00 -10.7 -13.5 80 32 15   101.67   -18 LegendNANA
15:00 -11.0 -13.8 80 33 16   101.68   -18 LegendNANA
16:00 -12.2 -14.5 83 32 15   101.68   -19 LegendNANA
17:00 -13.5 -15.5 85 33 15   101.71   -21 LegendNANA
18:00 -14.3 -16.3 85 33 16   101.71   -22 LegendNANA
19:00 -14.2 -16.3 84 32 7   101.71   -19 LegendNANA
20:00 -14.4 -16.4 85 34 8   101.70   -20 LegendNANA
21:00 -14.7 -16.7 84 34 9   101.69   -20 LegendNANA
22:00 -14.9 -16.9 85 34 7   101.67   -20 LegendNANA
23:00 -14.8 -16.8 85 33 10   101.66   -21 LegendNANA

Notes on Data Quality.

Legend

  • E = Estimated
  • M = Missing
  • NA = Not Available
  • ‡ = Partner data that is not subject to review by the National Climate Archives
Date modified: